| time (UTC) | temp F | wind direction | speed MPH | gust MPH | rain 1hr in | rain 24hr in | rain mn in | humidity % | barometer mb |
| 20260906121625 | 70 | 0 | 0.0 | 0.0 | 0.00 | 0.00 | 0.00 | 88 | 1012.9 |
| 20260906120827 | 69 | 0 | 0.0 | 0.0 | 0.00 | 0.00 | 0.00 | 90 | 1012.8 |
| 20260906115247 | 68 | 250 | 0.0 | 0.0 | 0.00 | 0.00 | 0.00 | 91 | 1012.7 |
| 20260906113052 | 67 | 314 | 0.0 | 0.0 | 0.00 | 0.00 | 0.00 | 92 | 1012.6 |
| 20260906111547 | 66 | 255 | 0.0 | 0.0 | 0.00 | 0.00 | 0.00 | 93 | 1012.5 |
| 20260906110048 | 66 | 254 | 0.0 | 0.0 | 0.00 | 0.00 | 0.00 | 94 | 1012.4 |
| 20260906104538 | 66 | 254 | 0.0 | 0.0 | 0.00 | 0.00 | 0.00 | 93 | 1012.2 |
| 20260906103026 | 66 | 67 | 0.0 | 0.0 | 0.00 | 0.00 | 0.00 | 93 | 1011.8 |
| 20260906101528 | 67 | 67 | 0.0 | 0.0 | 0.00 | 0.00 | 0.00 | 92 | 1011.6 |
| 20260906100027 | 67 | 67 | 0.0 | 0.0 | 0.00 | 0.00 | 0.00 | 91 | 1011.4 |
| 20260906094516 | 67 | 67 | 0.0 | 0.0 | 0.00 | 0.00 | 0.00 | 90 | 1011.3 |
| 20260906093005 | 68 | 67 | 0.0 | 0.0 | 0.00 | 0.00 | 0.00 | 90 | 1011.2 |
| 20260906091456 | 68 | 67 | 0.0 | 0.0 | 0.00 | 0.00 | 0.00 | 90 | 1010.9 |
| 20260906085956 | 68 | 67 | 0.0 | 0.0 | 0.00 | 0.00 | 0.00 | 89 | 1010.8 |
| 20260906084452 | 68 | 67 | 0.0 | 0.0 | 0.00 | 0.00 | 0.00 | 89 | 1010.8 |
| 20260906082950 | 68 | 67 | 0.0 | 0.0 | 0.00 | 0.00 | 0.00 | 89 | 1010.7 |
| 20260906081446 | 68 | 67 | 0.0 | 0.0 | 0.00 | 0.00 | 0.00 | 89 | 1010.7 |
| 20260906075931 | 69 | 67 | 0.0 | 0.0 | 0.00 | 0.00 | 0.00 | 89 | 1010.5 |
| 20260906074419 | 69 | 67 | 0.0 | 0.0 | 0.00 | 0.00 | 0.00 | 88 | 1010.5 |
| 20260906073559 | 69 | 67 | 0.0 | 0.0 | 0.00 | 0.00 | 0.00 | 88 | 1010.5 |
| 20260906071408 | 70 | 67 | 0.0 | 0.0 | 0.00 | 0.00 | 0.00 | 88 | 1010.4 |
| 20260906065859 | 70 | 67 | 0.0 | 0.0 | 0.00 | 0.00 | 0.00 | 87 | 1010.5 |
| 20260906064357 | 71 | 67 | 0.0 | 0.0 | 0.00 | 0.00 | 0.00 | 87 | 1010.5 |
| 20260906062858 | 71 | 67 | 0.0 | 0.0 | 0.00 | 0.00 | 0.00 | 87 | 1010.4 |
| 20260906061343 | 71 | 67 | 0.0 | 0.0 | 0.00 | 0.00 | 0.00 | 86 | 1010.6 |
| 20260906055837 | 71 | 67 | 0.0 | 0.0 | 0.00 | 0.00 | 0.00 | 86 | 1010.5 |
| 20260906054331 | 72 | 67 | 0.0 | 0.0 | 0.00 | 0.00 | 0.00 | 86 | 1010.5 |
| 20260906052824 | 72 | 67 | 0.0 | 0.0 | 0.00 | 0.00 | 0.00 | 86 | 1010.4 |
| 20260906051322 | 73 | 67 | 0.0 | 0.0 | 0.00 | 0.00 | 0.00 | 85 | 1010.7 |
| 20260906045813 | 73 | 67 | 0.0 | 0.0 | 0.00 | 0.00 | 0.00 | 84 | 1010.8 |
| 20260906044315 | 73 | 67 | 0.0 | 0.0 | 0.00 | 0.00 | 0.00 | 84 | 1010.9 |
| 20260906043502 | 73 | 67 | 0.0 | 0.0 | 0.00 | 0.00 | 0.00 | 84 | 1011.0 |
| 20260906042007 | 74 | 67 | 0.0 | 0.0 | 0.00 | 0.00 | 0.00 | 83 | 1011.0 |
| 20260906035753 | 73 | 67 | 0.0 | 0.0 | 0.00 | 0.00 | 0.00 | 85 | 1010.9 |
| 20260906034254 | 73 | 67 | 0.0 | 0.0 | 0.00 | 0.00 | 0.00 | 86 | 1010.8 |
| 20260906032749 | 74 | 67 | 0.0 | 0.0 | 0.00 | 0.00 | 0.00 | 87 | 1010.9 |
| 20260906031238 | 74 | 67 | 0.0 | 0.0 | 0.00 | 0.00 | 0.00 | 90 | 1010.9 |
| 20260906025738 | 74 | 67 | 0.0 | 0.0 | 0.00 | 0.00 | 0.00 | 90 | 1011.0 |
| 20260906024237 | 75 | 67 | 0.0 | 0.0 | 0.00 | 0.00 | 0.00 | 89 | 1010.7 |
| 20260906022737 | 75 | 67 | 0.0 | 0.0 | 0.00 | 0.00 | 0.00 | 90 | 1010.8 |
| 20260906021238 | 75 | 67 | 0.0 | 0.0 | 0.00 | 0.00 | 0.00 | 89 | 1010.8 |
| 20260906015736 | 76 | 67 | 0.0 | 0.0 | 0.00 | 0.00 | 0.00 | 89 | 1010.8 |
| 20260906014148 | 76 | 67 | 0.0 | 0.0 | 0.00 | 0.00 | 0.00 | 89 | 1010.7 |
| 20260906013340 | 76 | 67 | 0.0 | 0.0 | 0.00 | 0.00 | 0.00 | 88 | 1010.4 |
| 20260906011144 | 76 | 67 | 0.0 | 0.0 | 0.00 | 0.00 | 0.00 | 88 | 1010.3 |
| 20260906005640 | 76 | 61 | 0.0 | 0.0 | 0.00 | 0.00 | 0.00 | 89 | 1009.9 |
| 20260906004134 | 77 | 57 | 0.0 | 0.0 | 0.00 | 0.00 | 0.00 | 90 | 1009.9 |
| 20260906002605 | 77 | 110 | 0.0 | 0.0 | 0.00 | 0.00 | 0.00 | 91 | 1010.0 |
| 20260906001102 | 77 | 109 | 0.0 | 0.0 | 0.00 | 0.00 | 0.00 | 90 | 1009.7 |
| 20260906000259 | 78 | 109 | 0.0 | 0.0 | 0.00 | 0.00 | 0.00 | 89 | 1009.7 |
| 20260905234104 | 79 | 109 | 0.0 | 0.0 | 0.00 | 0.00 | 0.00 | 88 | 1009.6 |
| 20260905232556 | 80 | 53 | 0.0 | 0.0 | 0.00 | 0.00 | 0.00 | 83 | 1009.3 |
| 20260905231056 | 80 | 281 | 0.0 | 0.0 | 0.00 | 0.00 | 0.00 | 79 | 1009.1 |
| 20260905225557 | 80 | 281 | 0.0 | 0.0 | 0.00 | 0.00 | 0.00 | 79 | 1009.2 |
| 20260905224055 | 80 | 272 | 0.0 | 0.0 | 0.00 | 0.00 | 0.00 | 79 | 1009.2 |
| 20260905223249 | 80 | 272 | 0.0 | 0.0 | 0.00 | 0.00 | 0.00 | 80 | 1009.1 |
| 20260905221050 | 81 | 259 | 1.0 | 5.0 | 0.00 | 0.00 | 0.00 | 79 | 1009.1 |
| 20260905215550 | 81 | 55 | 0.0 | 2.0 | 0.00 | 0.00 | 0.00 | 78 | 1009.0 |
| 20260905214050 | 81 | 65 | 0.0 | 4.0 | 0.00 | 0.00 | 0.00 | 79 | 1008.8 |
| 20260905212550 | 82 | 297 | 0.0 | 5.0 | 0.00 | 0.00 | 0.00 | 79 | 1008.7 |
| 20260905211048 | 82 | 19 | 0.0 | 10.0 | 0.00 | 0.00 | 0.00 | 79 | 1008.5 |
| 20260905205549 | 83 | 267 | 0.0 | 6.0 | 0.00 | 0.05 | 0.00 | 77 | 1008.5 |
| 20260905204047 | 84 | 59 | 0.0 | 0.0 | 0.00 | 0.05 | 0.00 | 77 | 1008.4 |
| 20260905202537 | 83 | 65 | 0.0 | 0.0 | 0.00 | 0.05 | 0.00 | 79 | 1008.6 |
| 20260905201033 | 83 | 59 | 0.0 | 0.0 | 0.00 | 0.05 | 0.00 | 78 | 1008.6 |
| 20260905195532 | 85 | 66 | 0.0 | 0.0 | 0.00 | 0.05 | 0.00 | 76 | 1008.6 |
| 20260905194025 | 83 | 57 | 0.0 | 0.0 | 0.00 | 0.05 | 0.00 | 79 | 1008.6 |
| 20260905192521 | 84 | 256 | 0.0 | 0.0 | 0.00 | 0.05 | 0.00 | 79 | 1008.5 |
| 20260905191013 | 83 | 71 | 0.0 | 0.0 | 0.00 | 0.05 | 0.00 | 81 | 1008.8 |
| 20260905185454 | 83 | 302 | 0.0 | 0.0 | 0.00 | 0.05 | 0.00 | 80 | 1009.0 |
| 20260905184650 | 82 | 33 | 0.0 | 0.0 | 0.00 | 0.05 | 0.00 | 82 | 1009.1 |
| 20260905183154 | 82 | 281 | 0.0 | 0.0 | 0.00 | 0.05 | 0.00 | 83 | 1009.2 |
| 20260905180939 | 82 | 51 | 0.0 | 0.0 | 0.00 | 0.05 | 0.00 | 81 | 1009.4 |
| 20260905180136 | 82 | 5 | 0.0 | 0.0 | 0.00 | 0.05 | 0.00 | 82 | 1009.6 |
| 20260905174621 | 82 | 208 | 0.0 | 0.0 | 0.00 | 0.05 | 0.00 | 82 | 1009.9 |
| 20260905172424 | 82 | 286 | 0.0 | 0.0 | 0.00 | 0.05 | 0.00 | 83 | 1010.1 |
| 20260905171548 | 82 | 190 | 0.0 | 0.0 | 0.00 | 0.05 | 0.00 | 84 | 1010.3 |
| 20260905170059 | 82 | 211 | 0.0 | 0.0 | 0.00 | 0.05 | 0.00 | 82 | 1010.4 |
| 20260905163854 | 81 | 280 | 0.0 | 4.0 | 0.00 | 0.05 | 0.00 | 84 | 1010.3 |
| 20260905163048 | 80 | 262 | 2.0 | 7.0 | 0.00 | 0.05 | 0.00 | 85 | 1010.5 |
| 20260905161539 | 80 | 273 | 0.0 | 0.0 | 0.00 | 0.05 | 0.00 | 83 | 1010.7 |
| 20260905155348 | 80 | 287 | 0.0 | 0.0 | 0.00 | 0.05 | 0.00 | 84 | 1010.7 |
| 20260905154545 | 80 | 279 | 0.0 | 0.0 | 0.00 | 0.05 | 0.00 | 85 | 1010.8 |
| 20260905153040 | 79 | 279 | 0.0 | 0.0 | 0.00 | 0.05 | 0.00 | 87 | 1010.8 |
| 20260905150842 | 79 | 275 | 0.0 | 0.0 | 0.00 | 0.05 | 0.00 | 87 | 1011.0 |
| 20260905150103 | 79 | 268 | 0.0 | 0.0 | 0.00 | 0.05 | 0.00 | 85 | 1011.0 |
| 20260905144527 | 79 | 45 | 0.0 | 0.0 | 0.00 | 0.05 | 0.00 | 87 | 1010.8 |
| 20260905142306 | 79 | 45 | 0.0 | 1.0 | 0.00 | 0.05 | 0.00 | 87 | 1010.8 |
| 20260905141456 | 80 | 69 | 1.0 | 7.0 | 0.00 | 0.05 | 0.00 | 87 | 1010.5 |
| 20260905135256 | 80 | 43 | 0.0 | 6.0 | 0.00 | 0.05 | 0.00 | 89 | 1010.1 |
| 20260905133757 | 79 | 69 | 1.0 | 8.0 | 0.00 | 0.05 | 0.00 | 91 | 1010.1 |
| 20260905132247 | 77 | 351 | 1.0 | 6.0 | 0.00 | 0.05 | 0.00 | 94 | 1010.2 |
| 20260905130746 | 76 | 17 | 1.0 | 7.0 | 0.00 | 0.05 | 0.00 | 95 | 1010.3 |
| 20260905125246 | 76 | 319 | 0.0 | 2.0 | 0.00 | 0.05 | 0.00 | 96 | 1010.1 |
| 20260905123746 | 76 | 266 | 0.0 | 5.0 | 0.00 | 0.05 | 0.00 | 97 | 1010.0 |